Regional Weather Roundup
Issued by NWS

Home | Current Version | Previous Version | Graphics & Text | Print | Product List | Glossary On
Versions: 1 2 3 4 5 6 7 8 9 10 11 12 13 14 15 16 17 18 19 20 21 22 23 24 25 26 27 28 29 30 31 32 33 34 35 36 37 38 39 40 41 42 43 44 45 46 47 48 49 50
000
ASUS45 KBOU 251907
RWRCO

WEATHER ROUNDUP FOR COLORADO
NATIONAL WEATHER SERVICE DENVER/BOULDER CO
100 PM MDT SUN JUN 25 2017

NOTE: "FAIR" INDICATES FEW OR NO CLOUDS BELOW 12000 FEET WITH NO
SIGNIFICANT WEATHER AND/OR OBSTRUCTIONS TO VISIBILITY.

COZ001>005-013-030-031-252000-
...NORTHWEST COLORADO...

CITY           SKY/WX    TMP DP  RH WIND       PRES   REMARKS
CRAIG          FAIR      81  29  15 NW8       30.32F
HAYDEN         FAIR      75  28  17 W10G18    30.35F
MEEKER         FAIR      80  27  14 MISG      30.32F
RABBIT EARS PA FAIR      57  32  38 NW6G20    30.62S
STEAMBOAT SPGS FAIR      74  35  23 S6        30.36F
WALDEN         FAIR      70  30  23 CALM      30.44F
$$

COZ006>008-011-252000-
...WEST CENTRAL VALLEYS...

CITY           SKY/WX    TMP DP  RH WIND       PRES   REMARKS
GRAND JUNCTION FAIR      90  29  11 SW8       30.17F
MONTROSE       FAIR      85  29  13 NW7       30.25F
EAGLE          SUNNY     79  28  15 S6        30.33F
RIFLE          FAIR      87  22   9 VRB3      30.23F
DELTA          FAIR      89  27  10 S3        30.21F
NUCLA          FAIR      88  16   7 N7        30.29F
$$

COZ017>023-064>068-252000-
...SOUTHWEST COLORADO...

CITY           SKY/WX    TMP DP  RH WIND       PRES   REMARKS
DURANGO        FAIR      81  40  23 NW5       30.32F
CORTEZ         FAIR      88  36  15 VRB3      30.25F
PAGOSA SPRINGS FAIR      78  36  21 W9        30.40F
TELLURIDE      FAIR      75  19  12 W9G22     30.51S
WOLF CREEK PAS FAIR      55  37  50 SW14G22   30.75S
$$

COZ009-010-012-014-032>034-037-058>063-252000-
...CENTRAL COLORADO...

CITY           SKY/WX    TMP DP  RH WIND       PRES   REMARKS
ASPEN          FAIR      78  26  14 N12       30.38F
BUENA VISTA    FAIR      74  33  22 E3        30.38F
COPPER MTN     FAIR      59  14  17 NW9G22    30.69S
BERTHOUD PASS  FAIR      50  36  57 MISG      30.72S
COTTONWOOD PAS FAIR      73  36  25 E3G21     30.53F
GUNNISON       FAIR      76  30  18 NW7       30.38F
KREMMLING      NOT AVBL
LEADVILLE      FAIR      68  10  10 NW15G22   30.52S
MONARCH PASS   FAIR      59  23  25 SW23G35   30.80S
SALIDA         FAIR      80  39  23 E5        30.41F
SUNLIGHT       FAIR      63  19  19 W9G20     30.65F
WILKERSON PASS FAIR      61  34  36 N5        30.67S
$$

COZ069>075-252000-
...SAN LUIS VALLEY/SANGRE DE CRISTO MOUNTAINS...

CITY           SKY/WX    TMP DP  RH WIND       PRES   REMARKS
ALAMOSA        FAIR      75  45  34 E8        30.37F
DEL NORTE      FAIR      73  46  37 E10       30.40F
LA VETA PASS   PTSUNNY   64  46  52 N3        30.70S
SAGUACHE       FAIR      73  43  33 SE8       30.40F
$$

COZ035-036-038>040-252000-
...NORTHERN COLORADO FRONT RANGE...

CITY           SKY/WX    TMP DP  RH WIND       PRES   REMARKS
DENVER INTL AP PTSUNNY   65  50  58 NW10      30.37S
DMNS CITY PARK   N/A     63  49  60 N14       30.37S
AURORA         PTSUNNY   65  51  60 N10       30.37F
FRONT RANGE AP PTSUNNY   70  54  56 N9G20     30.37S
ERIE MUNI ARPT CLOUDY    64  50  61 N6        30.36S
BOULDER MUN AP CLOUDY    63  52  67 N5        30.37S
CENTENNIAL     PTSUNNY   65  50  58 N8        30.37F
BROOMFIELD     CLOUDY    63  50  63 NE8       30.38F
FORT COLLINS   CLOUDY    66  50  56 E8        30.37S
LONGMONT       CLOUDY    68  50  53 N6        30.38S
$$

COZ041-046-047-076>085-087-088-252000-
...PIKES PEAK/PALMER DIVIDE AND SOUTHERN FOOTHILLS...

CITY           SKY/WX    TMP DP  RH WIND       PRES   REMARKS
COLO. SPRINGS  PTSUNNY   74  49  41 SE8G18    30.34F
A. F. ACADEMY  FAIR      76  49  38 S10       30.35F
SCHRIEVER AFB  FAIR      74  47  37 SE10G17   30.35F
CHEYENNE MTN   PTSUNNY   67  50  53 S3        30.34S
ELLICOTT       FAIR     N/A N/A N/A VRB5G18   30.33F
FALCON           N/A     74  43  32 SE3       30.39F
FORT CARSON    PTSUNNY   75  50  41 S5        30.32S
LIMON          PTSUNNY   72  52  49 SE14G21   30.33S
MONUMENT HILL  FAIR      70  48  46 NE10G17   30.41F
CANON CITY     SUNNY     81  54  39 E9G17     30.28F
WALSENBURG     FAIR      79  54  41 N3        30.32F
TRINIDAD       FAIR      79  52  38 SE5       30.30F
$$

COZ042>045-048>051-090-091-252000-
...NORTHEAST COLORADO...

CITY           SKY/WX    TMP DP  RH WIND       PRES   REMARKS
GREELEY ARPT   CLOUDY    63  52  67 NE7       30.36F
AKRON          CLOUDY    61  51  70 E13G21    30.36S
BURLINGTON     PTSUNNY   70  55  59 E15       30.32F
WRAY           CLOUDY    61  52  72 MISG      30.35F
YUMA           CLOUDY    55  54  94 E9        30.35F
STERLING       CLOUDY    64  50  59 S7        30.34F
HOLYOKE        NOT AVBL
FORT MORGAN    CLOUDY    64  51  63 E10       30.36S
$$

COZ086-089-092>099-252000-
...SOUTHEAST COLORADO...

CITY           SKY/WX    TMP DP  RH WIND       PRES   REMARKS
PUEBLO         FAIR      80  55  42 S7        30.24F
LA JUNTA       PTSUNNY   81  56  42 E9        30.23F
LAMAR          PTSUNNY   81  56  42 NE8       30.20F
SPRINGFIELD      N/A     79  60  52 S16G23    30.26F
$$



USA.gov is the U.S. government's official web portal to all federal, state and local government web resources and services.